TimeCST,TemperatureF,Dew PointF,Humidity,Sea Level PressureIn,VisibilityMPH,Wind Direction,Wind SpeedMPH,Gust SpeedMPH,PrecipitationIn,Events,Conditions,WindDirDegrees,DateUTC
12:53 AM,30.9,24.1,76,30.22,10.0,North,16.1,24.2,N/A,,Overcast,350,2013-11-11 06:53:00
1:51 AM,28.4,12.2,51,30.19,10.0,North,13.8,26.5,N/A,,Overcast,350,2013-11-11 07:51:00
1:53 AM,27.0,12.9,56,30.26,10.0,North,18.4,26.5,N/A,,Overcast,350,2013-11-11 07:53:00
2:53 AM,25.0,10.9,55,30.29,10.0,North,13.8,24.2,N/A,,Overcast,350,2013-11-11 08:53:00
3:53 AM,24.1,12.0,60,30.33,10.0,North,15.0,23.0,N/A,,Overcast,360,2013-11-11 09:53:00
4:53 AM,21.9,12.0,66,30.37,10.0,NNW,18.4,26.5,N/A,,Scattered Clouds,340,2013-11-11 10:53:00
5:11 AM,21.2,12.2,68,30.30,10.0,North,13.8,-,N/A,,Mostly Cloudy,350,2013-11-11 11:11:00
5:23 AM,21.2,12.2,68,30.30,10.0,North,13.8,21.9,N/A,,Scattered Clouds,350,2013-11-11 11:23:00
5:53 AM,19.9,10.9,68,30.40,10.0,North,13.8,21.9,N/A,,Clear,360,2013-11-11 11:53:00
6:28 AM,19.4,10.4,68,30.34,10.0,North,16.1,20.7,N/A,,Mostly Cloudy,360,2013-11-11 12:28:00
6:42 AM,19.4,10.4,68,30.35,10.0,North,13.8,20.7,N/A,,Scattered Clouds,360,2013-11-11 12:42:00
6:49 AM,19.4,10.4,68,30.36,10.0,North,12.7,20.7,N/A,,Mostly Cloudy,360,2013-11-11 12:49:00
6:53 AM,19.0,9.0,65,30.43,10.0,North,13.8,23.0,N/A,,Mostly Cloudy,360,2013-11-11 12:53:00
7:13 AM,19.4,8.6,63,30.38,10.0,North,9.2,18.4,N/A,,Scattered Clouds,360,2013-11-11 13:13:00
7:53 AM,18.0,8.1,65,30.48,10.0,North,13.8,20.7,N/A,,Mostly Cloudy,360,2013-11-11 13:53:00
8:53 AM,18.0,8.1,65,30.51,10.0,North,13.8,-,N/A,,Overcast,10,2013-11-11 14:53:00
9:53 AM,18.0,7.0,62,30.53,10.0,North,11.5,23.0,N/A,,Mostly Cloudy,350,2013-11-11 15:53:00
10:53 AM,21.0,7.0,55,30.55,10.0,North,17.3,24.2,N/A,,Scattered Clouds,10,2013-11-11 16:53:00
11:53 AM,21.9,8.1,55,30.56,10.0,NNW,18.4,21.9,N/A,,Overcast,340,2013-11-11 17:53:00
12:53 PM,21.9,7.0,53,30.57,10.0,North,16.1,20.7,N/A,,Scattered Clouds,350,2013-11-11 18:53:00
1:53 PM,23.0,7.0,50,30.58,10.0,North,15.0,21.9,N/A,,Mostly Cloudy,350,2013-11-11 19:53:00
2:53 PM,23.0,6.1,48,30.60,10.0,NNW,13.8,20.7,N/A,,Partly Cloudy,330,2013-11-11 20:53:00
3:53 PM,21.0,6.1,53,30.63,10.0,North,15.0,20.7,N/A,,Clear,360,2013-11-11 21:53:00
4:53 PM,18.0,6.1,60,30.66,10.0,North,10.4,-,N/A,,Clear,350,2013-11-11 22:53:00
5:53 PM,16.0,6.1,65,30.69,10.0,NNW,5.8,-,N/A,,Clear,330,2013-11-11 23:53:00
6:53 PM,15.1,6.1,68,30.73,10.0,NNW,4.6,-,N/A,,Clear,330,2013-11-12 00:53:00
7:53 PM,14.0,5.0,67,30.75,10.0,NNW,8.1,-,N/A,,Clear,330,2013-11-12 01:53:00
8:53 PM,14.0,5.0,67,30.76,10.0,NNW,8.1,-,N/A,,Clear,330,2013-11-12 02:53:00
9:53 PM,12.9,5.0,71,30.79,10.0,NNW,8.1,-,N/A,,Clear,330,2013-11-12 03:53:00
10:53 PM,12.0,3.9,70,30.80,10.0,NNW,6.9,-,N/A,,Clear,330,2013-11-12 04:53:00
11:53 PM,10.9,3.9,73,30.82,10.0,WNW,4.6,-,N/A,,Clear,300,2013-11-12 05:53:00